Year,Month,Day,Hour,Minute,Value (Times are PST for temperature in C)
2019,11,24,00,00,10.30
2019,11,24,00,01,10.30
2019,11,24,00,02,10.20
2019,11,24,00,03,10.20
2019,11,24,00,04,10.20
2019,11,24,00,05,10.20
2019,11,24,00,06,10.20
2019,11,24,00,07,10.10
2019,11,24,00,08,10.10
2019,11,24,00,09,10.10
2019,11,24,00,10,10.00
2019,11,24,00,11,10.00
2019,11,24,00,12,10.00
2019,11,24,00,13,9.90
2019,11,24,00,14,9.90
2019,11,24,00,15,9.90
2019,11,24,00,16,9.90
2019,11,24,00,17,9.90
2019,11,24,00,18,9.90
2019,11,24,00,19,9.90
2019,11,24,00,20,9.90
2019,11,24,00,21,9.80
2019,11,24,00,22,9.80
2019,11,24,00,23,9.80
2019,11,24,00,24,9.80
2019,11,24,00,25,9.80
2019,11,24,00,26,9.80
2019,11,24,00,27,9.80
2019,11,24,00,28,9.80
2019,11,24,00,29,9.80
2019,11,24,00,30,9.80
2019,11,24,00,31,9.70
2019,11,24,00,32,9.70
2019,11,24,00,33,9.70
2019,11,24,00,34,9.70
2019,11,24,00,35,9.70
2019,11,24,00,36,9.70
2019,11,24,00,37,9.70
2019,11,24,00,38,9.70
2019,11,24,00,39,9.70
2019,11,24,00,40,9.70
2019,11,24,00,41,9.70
2019,11,24,00,42,9.70
2019,11,24,00,43,9.70
2019,11,24,00,44,9.70
2019,11,24,00,45,9.70
2019,11,24,00,46,9.70
2019,11,24,00,47,9.70
2019,11,24,00,48,9.60
2019,11,24,00,49,9.70
2019,11,24,00,50,9.70
2019,11,24,00,51,9.70
2019,11,24,00,52,9.70
2019,11,24,00,53,9.60
2019,11,24,00,54,9.70
2019,11,24,00,55,9.70
2019,11,24,00,56,9.60
2019,11,24,00,57,9.60
2019,11,24,00,58,9.60
2019,11,24,00,59,9.60
2019,11,24,01,00,9.60
2019,11,24,01,01,9.60
2019,11,24,01,02,9.60
2019,11,24,01,03,9.60
2019,11,24,01,04,9.60
2019,11,24,01,05,9.60
2019,11,24,01,06,9.60
2019,11,24,01,07,9.60
2019,11,24,01,08,9.50
2019,11,24,01,09,9.50
2019,11,24,01,10,9.50
2019,11,24,01,11,9.50
2019,11,24,01,12,9.40
2019,11,24,01,13,9.40
2019,11,24,01,14,9.50
2019,11,24,01,15,9.50
2019,11,24,01,16,9.50
2019,11,24,01,17,9.50
2019,11,24,01,18,9.50
2019,11,24,01,19,9.50
2019,11,24,01,20,9.50
2019,11,24,01,21,9.50
2019,11,24,01,22,9.50
2019,11,24,01,23,9.60
2019,11,24,01,24,9.60
2019,11,24,01,25,9.60
2019,11,24,01,26,9.60
2019,11,24,01,27,9.60
2019,11,24,01,28,9.60
2019,11,24,01,29,9.60
2019,11,24,01,30,9.60
2019,11,24,01,31,9.70
2019,11,24,01,32,9.70
2019,11,24,01,33,9.60
2019,11,24,01,34,9.70
2019,11,24,01,35,9.70
2019,11,24,01,36,9.60
2019,11,24,01,37,9.60
2019,11,24,01,38,9.60
2019,11,24,01,39,9.60
2019,11,24,01,40,9.60
2019,11,24,01,41,9.60
2019,11,24,01,42,9.60
2019,11,24,01,43,9.60
2019,11,24,01,44,9.60
2019,11,24,01,45,9.60
2019,11,24,01,46,9.60
2019,11,24,01,47,9.50
2019,11,24,01,48,9.50
2019,11,24,01,49,9.50
2019,11,24,01,50,9.50
2019,11,24,01,51,9.40
2019,11,24,01,52,9.40
2019,11,24,01,53,9.40
2019,11,24,01,54,9.40
2019,11,24,01,55,9.40
2019,11,24,01,56,9.40
2019,11,24,01,57,9.40
2019,11,24,01,58,9.40
2019,11,24,01,59,9.40
2019,11,24,02,00,9.40
2019,11,24,02,01,9.40
2019,11,24,02,02,9.30
2019,11,24,02,03,9.30
2019,11,24,02,04,9.30
2019,11,24,02,05,9.30
2019,11,24,02,06,9.30
2019,11,24,02,07,9.20
2019,11,24,02,08,9.20
2019,11,24,02,09,9.20
2019,11,24,02,10,9.20
2019,11,24,02,11,9.20
2019,11,24,02,12,9.20
2019,11,24,02,13,9.10
2019,11,24,02,14,9.10
2019,11,24,02,15,9.10
2019,11,24,02,16,9.10
2019,11,24,02,17,9.10
2019,11,24,02,18,9.10
2019,11,24,02,19,9.10
2019,11,24,02,20,9.10
2019,11,24,02,21,9.10
2019,11,24,02,22,9.10
2019,11,24,02,23,9.10
2019,11,24,02,24,9.10
2019,11,24,02,25,9.10
2019,11,24,02,26,9.10
2019,11,24,02,27,9.00
2019,11,24,02,28,9.00
2019,11,24,02,29,9.00
2019,11,24,02,30,9.00
2019,11,24,02,31,9.00
2019,11,24,02,32,9.00
2019,11,24,02,33,9.00
2019,11,24,02,34,9.00
2019,11,24,02,35,9.00
2019,11,24,02,36,9.00
2019,11,24,02,37,9.00
2019,11,24,02,38,9.00
2019,11,24,02,39,9.00
2019,11,24,02,40,9.00
2019,11,24,02,41,9.10
2019,11,24,02,42,9.10
2019,11,24,02,43,9.10
2019,11,24,02,44,9.10
2019,11,24,02,45,9.10
2019,11,24,02,46,9.10
2019,11,24,02,47,9.10
2019,11,24,02,48,9.10
2019,11,24,02,49,9.20
2019,11,24,02,50,9.20
2019,11,24,02,51,9.10
2019,11,24,02,52,9.10
2019,11,24,02,53,9.10
2019,11,24,02,54,9.10
2019,11,24,02,55,9.10
2019,11,24,02,56,9.10
2019,11,24,02,57,9.10
2019,11,24,02,58,9.10
2019,11,24,02,59,9.20
2019,11,24,03,00,9.20
2019,11,24,03,01,9.20
2019,11,24,03,02,9.20
2019,11,24,03,03,9.20
2019,11,24,03,04,9.20
2019,11,24,03,05,9.20
2019,11,24,03,06,9.20
2019,11,24,03,07,9.20
2019,11,24,03,08,9.20
2019,11,24,03,09,9.20
2019,11,24,03,10,9.10
2019,11,24,03,11,9.10
2019,11,24,03,12,9.10
2019,11,24,03,13,9.10
2019,11,24,03,14,9.10
2019,11,24,03,15,9.10
2019,11,24,03,16,9.10
2019,11,24,03,17,9.10
2019,11,24,03,18,9.10
2019,11,24,03,19,9.10
2019,11,24,03,20,9.10
2019,11,24,03,21,9.10
2019,11,24,03,22,9.10
2019,11,24,03,23,9.10
2019,11,24,03,24,9.10
2019,11,24,03,25,9.10
2019,11,24,03,26,9.10
2019,11,24,03,27,9.10
2019,11,24,03,28,9.00
2019,11,24,03,29,9.00
2019,11,24,03,30,9.00
2019,11,24,03,31,9.00
2019,11,24,03,32,9.00
2019,11,24,03,33,8.90
2019,11,24,03,34,8.90
2019,11,24,03,35,8.90
2019,11,24,03,36,8.90
2019,11,24,03,37,8.90
2019,11,24,03,38,8.80
2019,11,24,03,39,8.80
2019,11,24,03,40,8.80
2019,11,24,03,41,8.80
2019,11,24,03,42,8.80
2019,11,24,03,43,8.80
2019,11,24,03,44,8.80
2019,11,24,03,45,8.80
2019,11,24,03,46,8.80
2019,11,24,03,47,8.80
2019,11,24,03,48,8.80
2019,11,24,03,49,8.80
2019,11,24,03,50,8.80
2019,11,24,03,51,8.80
2019,11,24,03,52,8.80
2019,11,24,03,53,8.80
2019,11,24,03,54,8.80
2019,11,24,03,55,8.80
2019,11,24,03,56,8.80
2019,11,24,03,57,8.70
2019,11,24,03,58,8.70
2019,11,24,03,59,8.70
2019,11,24,04,00,8.60
2019,11,24,04,01,8.60
2019,11,24,04,02,8.60
2019,11,24,04,03,8.50
2019,11,24,04,04,8.50
2019,11,24,04,05,8.50
2019,11,24,04,06,8.50
2019,11,24,04,07,8.50
2019,11,24,04,08,8.50
2019,11,24,04,09,8.50
2019,11,24,04,10,8.50
2019,11,24,04,11,8.40
2019,11,24,04,12,8.40
2019,11,24,04,13,8.40
2019,11,24,04,14,8.40
2019,11,24,04,15,8.40
2019,11,24,04,16,8.40
2019,11,24,04,17,8.40
2019,11,24,04,18,8.40
2019,11,24,04,19,8.30
2019,11,24,04,20,8.30
2019,11,24,04,21,8.30
2019,11,24,04,22,8.30
2019,11,24,04,23,8.30
2019,11,24,04,24,8.40
2019,11,24,04,25,8.40
2019,11,24,04,26,8.40
2019,11,24,04,27,8.40
2019,11,24,04,28,8.40
2019,11,24,04,29,8.40
2019,11,24,04,30,8.40
2019,11,24,04,31,8.40
2019,11,24,04,32,8.40
2019,11,24,04,33,8.40
2019,11,24,04,34,8.40
2019,11,24,04,35,8.40
2019,11,24,04,36,8.40
2019,11,24,04,37,8.30
2019,11,24,04,38,8.30
2019,11,24,04,39,8.30
2019,11,24,04,40,8.30
2019,11,24,04,41,8.30
2019,11,24,04,42,8.30
2019,11,24,04,43,8.30
2019,11,24,04,44,8.30
2019,11,24,04,45,8.30
2019,11,24,04,46,8.30
2019,11,24,04,47,8.30
2019,11,24,04,48,8.30
2019,11,24,04,49,8.30
2019,11,24,04,50,8.20
2019,11,24,04,51,8.20
2019,11,24,04,52,8.20
2019,11,24,04,53,8.20
2019,11,24,04,54,8.20
2019,11,24,04,55,8.20
2019,11,24,04,56,8.20
2019,11,24,04,57,8.20
2019,11,24,04,58,8.20
2019,11,24,04,59,8.20
2019,11,24,05,00,8.20
2019,11,24,05,01,8.20
2019,11,24,05,02,8.20
2019,11,24,05,03,8.20
2019,11,24,05,04,8.20
2019,11,24,05,05,8.20
2019,11,24,05,06,8.20
2019,11,24,05,07,8.20
2019,11,24,05,08,8.20
2019,11,24,05,09,8.20
2019,11,24,05,10,8.20
2019,11,24,05,11,8.20
2019,11,24,05,12,8.20
2019,11,24,05,13,8.20
2019,11,24,05,14,8.20
2019,11,24,05,15,8.30
2019,11,24,05,16,8.30
2019,11,24,05,17,8.30
2019,11,24,05,18,8.30
2019,11,24,05,19,8.30
2019,11,24,05,20,8.30
2019,11,24,05,21,8.30
2019,11,24,05,22,8.30
2019,11,24,05,23,8.30
2019,11,24,05,24,8.30
2019,11,24,05,25,8.40
2019,11,24,05,26,8.40
2019,11,24,05,27,8.40
2019,11,24,05,28,8.40
2019,11,24,05,29,8.40
2019,11,24,05,30,8.40
2019,11,24,05,31,8.40
2019,11,24,05,32,8.40
2019,11,24,05,33,8.40
2019,11,24,05,34,8.40
2019,11,24,05,35,8.40
2019,11,24,05,36,8.40
2019,11,24,05,37,8.40
2019,11,24,05,38,8.40
2019,11,24,05,39,8.40
2019,11,24,05,40,8.40
2019,11,24,05,41,8.40
2019,11,24,05,42,8.40
2019,11,24,05,43,8.30
2019,11,24,05,44,8.30
2019,11,24,05,45,8.40
2019,11,24,05,46,8.40
2019,11,24,05,47,8.40
2019,11,24,05,48,8.40
2019,11,24,05,49,8.40
2019,11,24,05,50,8.40
2019,11,24,05,51,8.40
2019,11,24,05,52,8.40
2019,11,24,05,53,8.40
2019,11,24,05,54,8.40
2019,11,24,05,55,8.40
2019,11,24,05,56,8.40
2019,11,24,05,57,8.40
2019,11,24,05,58,8.40
2019,11,24,05,59,8.40
2019,11,24,06,00,8.30
2019,11,24,06,01,8.30
2019,11,24,06,02,8.30
2019,11,24,06,03,8.30
2019,11,24,06,04,8.20
2019,11,24,06,05,8.20
2019,11,24,06,06,8.20
2019,11,24,06,07,8.20
2019,11,24,06,08,8.10
2019,11,24,06,09,8.10
2019,11,24,06,10,8.10
2019,11,24,06,11,8.10
2019,11,24,06,12,8.00
2019,11,24,06,13,8.00
2019,11,24,06,14,7.90
2019,11,24,06,15,7.90
2019,11,24,06,16,7.90
2019,11,24,06,17,7.90
2019,11,24,06,18,7.90
2019,11,24,06,19,7.90
2019,11,24,06,20,7.90
2019,11,24,06,21,7.90
2019,11,24,06,22,7.90
2019,11,24,06,23,7.90
2019,11,24,06,24,7.90
2019,11,24,06,25,7.90
2019,11,24,06,26,7.80
2019,11,24,06,27,7.80
2019,11,24,06,28,7.80
2019,11,24,06,29,7.80
2019,11,24,06,30,7.80
2019,11,24,06,31,7.80
2019,11,24,06,32,7.70
2019,11,24,06,33,7.70
2019,11,24,06,34,7.70
2019,11,24,06,35,7.70
2019,11,24,06,36,7.70
2019,11,24,06,37,7.70
2019,11,24,06,38,7.70
2019,11,24,06,39,7.70
2019,11,24,06,40,7.70
2019,11,24,06,41,7.70
2019,11,24,06,42,7.70
2019,11,24,06,43,7.60
2019,11,24,06,44,7.60
2019,11,24,06,45,7.60
2019,11,24,06,46,7.60
2019,11,24,06,47,7.50
2019,11,24,06,48,7.50
2019,11,24,06,49,7.50
2019,11,24,06,50,7.50
2019,11,24,06,51,7.50
2019,11,24,06,52,7.50
2019,11,24,06,53,7.50
2019,11,24,06,54,7.40
2019,11,24,06,55,7.40
2019,11,24,06,56,7.30
2019,11,24,06,57,7.30
2019,11,24,06,58,7.20
2019,11,24,06,59,7.20
2019,11,24,07,00,7.10
2019,11,24,07,01,7.10
2019,11,24,07,02,7.00
2019,11,24,07,03,6.90
2019,11,24,07,04,6.80
2019,11,24,07,05,6.70
2019,11,24,07,06,6.60
2019,11,24,07,07,6.50
2019,11,24,07,08,6.40
2019,11,24,07,09,6.30
2019,11,24,07,10,6.10
2019,11,24,07,11,6.10
2019,11,24,07,12,6.00
2019,11,24,07,13,5.90
2019,11,24,07,14,5.90
2019,11,24,07,15,5.80
2019,11,24,07,16,5.80
2019,11,24,07,17,5.80
2019,11,24,07,18,5.80
2019,11,24,07,19,5.70
2019,11,24,07,20,5.60
2019,11,24,07,21,5.60
2019,11,24,07,22,5.60
2019,11,24,07,23,5.50
2019,11,24,07,24,5.50
2019,11,24,07,25,5.50
2019,11,24,07,26,5.40
2019,11,24,07,27,5.40
2019,11,24,07,28,5.40
2019,11,24,07,29,5.40
2019,11,24,07,30,5.30
2019,11,24,07,31,5.30
2019,11,24,07,32,5.20
2019,11,24,07,33,5.20
2019,11,24,07,34,5.20
2019,11,24,07,35,5.20
2019,11,24,07,36,5.20
2019,11,24,07,37,5.10
2019,11,24,07,38,5.10
2019,11,24,07,39,5.20
2019,11,24,07,40,5.20
2019,11,24,07,41,5.20
2019,11,24,07,42,5.20
2019,11,24,07,43,5.10
2019,11,24,07,44,5.10
2019,11,24,07,45,5.20
2019,11,24,07,46,5.20
2019,11,24,07,47,5.20
2019,11,24,07,48,5.10
2019,11,24,07,49,5.20
2019,11,24,07,50,5.10
2019,11,24,07,51,5.10
2019,11,24,07,52,5.10
2019,11,24,07,53,5.10
2019,11,24,07,54,5.10
2019,11,24,07,55,5.10
2019,11,24,07,56,5.10
2019,11,24,07,57,5.10
2019,11,24,07,58,5.10
2019,11,24,07,59,5.10
2019,11,24,08,00,5.10
2019,11,24,08,01,5.10
2019,11,24,08,02,5.10
2019,11,24,08,03,5.10
2019,11,24,08,04,5.00
2019,11,24,08,05,5.00
2019,11,24,08,06,5.00
2019,11,24,08,07,5.00
2019,11,24,08,08,4.90
2019,11,24,08,09,4.90
2019,11,24,08,10,4.90
2019,11,24,08,11,4.90
2019,11,24,08,12,4.90
2019,11,24,08,13,5.00
2019,11,24,08,14,5.00
2019,11,24,08,15,5.00
2019,11,24,08,16,4.90
2019,11,24,08,17,4.90
2019,11,24,08,18,4.90
2019,11,24,08,19,4.90
2019,11,24,08,20,4.90
2019,11,24,08,21,4.90
2019,11,24,08,22,4.90
2019,11,24,08,23,4.90
2019,11,24,08,24,4.90
2019,11,24,08,25,4.80
2019,11,24,08,26,4.90
2019,11,24,08,27,4.90
2019,11,24,08,28,4.90
2019,11,24,08,29,4.80
2019,11,24,08,30,4.80
2019,11,24,08,31,4.80
2019,11,24,08,32,4.80
2019,11,24,08,33,4.80
2019,11,24,08,34,4.80
2019,11,24,08,35,4.80
2019,11,24,08,36,4.80
2019,11,24,08,37,4.90
2019,11,24,08,38,4.90
2019,11,24,08,39,4.90
2019,11,24,08,40,5.00
2019,11,24,08,41,5.10
2019,11,24,08,42,5.10
2019,11,24,08,43,5.20
2019,11,24,08,44,5.20
2019,11,24,08,45,5.20
2019,11,24,08,46,5.30
2019,11,24,08,47,5.30
2019,11,24,08,48,5.30
2019,11,24,08,49,5.30
2019,11,24,08,50,5.30
2019,11,24,08,51,5.30
2019,11,24,08,52,5.30
2019,11,24,08,53,5.30
2019,11,24,08,54,5.30
2019,11,24,08,55,5.40
2019,11,24,08,56,5.40
2019,11,24,08,57,5.40
2019,11,24,08,58,5.40
2019,11,24,08,59,5.40
2019,11,24,09,00,5.50
2019,11,24,09,01,5.50
2019,11,24,09,02,5.50
2019,11,24,09,03,5.60
2019,11,24,09,04,5.60
2019,11,24,09,05,5.70
2019,11,24,09,06,5.70
2019,11,24,09,07,5.80
2019,11,24,09,08,5.80
2019,11,24,09,09,5.80
2019,11,24,09,10,5.90
2019,11,24,09,11,5.90
2019,11,24,09,12,5.90
2019,11,24,09,13,5.90
2019,11,24,09,14,5.90
2019,11,24,09,15,5.90
2019,11,24,09,16,6.00
2019,11,24,09,17,6.00
2019,11,24,09,18,6.00
2019,11,24,09,19,6.00
2019,11,24,09,20,6.00
2019,11,24,09,21,6.10
2019,11,24,09,22,6.10
2019,11,24,09,23,6.10
2019,11,24,09,24,6.20
2019,11,24,09,25,6.20
2019,11,24,09,26,6.30
2019,11,24,09,27,6.30
2019,11,24,09,28,6.30
2019,11,24,09,29,6.30
2019,11,24,09,30,6.30
2019,11,24,09,31,6.40
2019,11,24,09,32,6.40
2019,11,24,09,33,6.40
2019,11,24,09,34,6.40
2019,11,24,09,35,6.40
2019,11,24,09,36,6.50
2019,11,24,09,37,6.50
2019,11,24,09,38,6.50
2019,11,24,09,39,6.60
2019,11,24,09,40,6.60
2019,11,24,09,41,6.60
2019,11,24,09,42,6.60
2019,11,24,09,43,6.60
2019,11,24,09,44,6.70
2019,11,24,09,45,6.70
2019,11,24,09,46,6.70
2019,11,24,09,47,6.70
2019,11,24,09,48,6.70
2019,11,24,09,49,6.70
2019,11,24,09,50,6.70
2019,11,24,09,51,6.70
2019,11,24,09,52,6.80
2019,11,24,09,53,6.80
2019,11,24,09,54,6.80
2019,11,24,09,55,6.80
2019,11,24,09,56,6.80
2019,11,24,09,57,6.80
2019,11,24,09,58,6.80
2019,11,24,09,59,6.80
2019,11,24,10,00,6.80
2019,11,24,10,01,6.80
2019,11,24,10,02,6.90
2019,11,24,10,03,6.90
2019,11,24,10,04,6.90
2019,11,24,10,05,6.90
2019,11,24,10,06,7.00
2019,11,24,10,07,7.00
2019,11,24,10,08,7.00
2019,11,24,10,09,7.00
2019,11,24,10,10,7.10
2019,11,24,10,11,7.10
2019,11,24,10,12,7.10
2019,11,24,10,13,7.10
2019,11,24,10,14,7.10
2019,11,24,10,15,7.10
2019,11,24,10,16,7.20
2019,11,24,10,17,7.20
2019,11,24,10,18,7.20
2019,11,24,10,19,7.20
2019,11,24,10,20,7.20
2019,11,24,10,21,7.20
2019,11,24,10,22,7.30
2019,11,24,10,23,7.30
2019,11,24,10,24,7.40
2019,11,24,10,25,7.40
2019,11,24,10,26,7.50
2019,11,24,10,27,7.50
2019,11,24,10,28,7.50
2019,11,24,10,29,7.60
2019,11,24,10,30,7.60
2019,11,24,10,31,7.60
2019,11,24,10,32,7.70
2019,11,24,10,33,7.70
2019,11,24,10,34,7.70
2019,11,24,10,35,7.70
2019,11,24,10,36,7.80
2019,11,24,10,37,7.80
2019,11,24,10,38,7.80
2019,11,24,10,39,7.80
2019,11,24,10,40,7.90
2019,11,24,10,41,7.90
2019,11,24,10,42,7.90
2019,11,24,10,43,7.90
2019,11,24,10,44,7.90
2019,11,24,10,45,8.00
2019,11,24,10,46,8.00
2019,11,24,10,47,8.00
2019,11,24,10,48,8.00
2019,11,24,10,49,8.00
2019,11,24,10,50,8.10
2019,11,24,10,51,8.10
2019,11,24,10,52,8.10
2019,11,24,10,53,8.20
2019,11,24,10,54,8.20
2019,11,24,10,55,8.30
2019,11,24,10,56,8.30
2019,11,24,10,57,8.30
2019,11,24,10,58,8.40
2019,11,24,10,59,8.40
2019,11,24,11,00,8.40
2019,11,24,11,01,8.40
2019,11,24,11,02,8.40
2019,11,24,11,03,8.40
2019,11,24,11,04,8.50
2019,11,24,11,05,8.50
2019,11,24,11,06,8.50
2019,11,24,11,07,8.50
2019,11,24,11,08,8.50
2019,11,24,11,09,8.50
2019,11,24,11,10,8.50
2019,11,24,11,11,8.50
2019,11,24,11,12,8.50
2019,11,24,11,13,8.50
2019,11,24,11,14,8.50
2019,11,24,11,15,8.50
2019,11,24,11,16,8.50
2019,11,24,11,17,8.50
2019,11,24,11,18,8.60
2019,11,24,11,19,8.60
2019,11,24,11,20,8.60
2019,11,24,11,21,8.70
2019,11,24,11,22,8.70
2019,11,24,11,23,8.80
2019,11,24,11,24,8.80
2019,11,24,11,25,8.90
2019,11,24,11,26,8.90
2019,11,24,11,27,8.90
2019,11,24,11,28,8.90
2019,11,24,11,29,8.90
2019,11,24,11,30,8.90
2019,11,24,11,31,8.90
2019,11,24,11,32,8.90
2019,11,24,11,33,8.90
2019,11,24,11,34,9.00
2019,11,24,11,35,9.00
2019,11,24,11,36,9.10
2019,11,24,11,37,9.10
2019,11,24,11,38,9.10
2019,11,24,11,39,9.10
2019,11,24,11,40,9.10
2019,11,24,11,41,9.10
2019,11,24,11,42,9.10
2019,11,24,11,43,9.20
2019,11,24,11,44,9.20
2019,11,24,11,45,9.20
2019,11,24,11,46,9.20
2019,11,24,11,47,9.20
2019,11,24,11,48,9.20
2019,11,24,11,49,9.20
2019,11,24,11,50,9.20
2019,11,24,11,51,9.20
2019,11,24,11,52,9.20
2019,11,24,11,53,9.20
2019,11,24,11,54,9.20
2019,11,24,11,55,9.20
2019,11,24,11,56,9.20
2019,11,24,11,57,9.20
2019,11,24,11,58,9.20
2019,11,24,11,59,9.20
2019,11,24,12,00,9.20
2019,11,24,12,01,9.10
2019,11,24,12,02,9.10
2019,11,24,12,03,9.10
2019,11,24,12,04,9.10
2019,11,24,12,05,9.10
2019,11,24,12,06,9.10
2019,11,24,12,07,9.10
2019,11,24,12,08,9.10
2019,11,24,12,09,9.10
2019,11,24,12,10,9.10
2019,11,24,12,11,9.00
2019,11,24,12,12,9.00
2019,11,24,12,13,9.00
2019,11,24,12,14,9.00
2019,11,24,12,15,9.00
2019,11,24,12,16,9.00
2019,11,24,12,17,9.00
2019,11,24,12,18,9.00
2019,11,24,12,19,9.00
2019,11,24,12,20,9.00
2019,11,24,12,21,9.00
2019,11,24,12,22,9.00
2019,11,24,12,23,9.00
2019,11,24,12,24,9.00
2019,11,24,12,25,9.00
2019,11,24,12,26,9.00
2019,11,24,12,27,9.00
2019,11,24,12,28,9.00
2019,11,24,12,29,9.00
2019,11,24,12,30,9.00
2019,11,24,12,31,9.00
2019,11,24,12,32,9.00
2019,11,24,12,33,9.00
2019,11,24,12,34,9.00
2019,11,24,12,35,9.00
2019,11,24,12,36,9.10
2019,11,24,12,37,9.10
2019,11,24,12,38,9.10
2019,11,24,12,39,9.10
2019,11,24,12,40,9.10
2019,11,24,12,41,9.10
2019,11,24,12,42,9.10
2019,11,24,12,43,9.10
2019,11,24,12,44,9.10
2019,11,24,12,45,9.20
2019,11,24,12,46,9.20
2019,11,24,12,47,9.30
2019,11,24,12,48,9.30
2019,11,24,12,49,9.30
2019,11,24,12,50,9.30
2019,11,24,12,51,9.30
2019,11,24,12,52,9.30
2019,11,24,12,53,9.30
2019,11,24,12,54,9.40
2019,11,24,12,55,9.40
2019,11,24,12,56,9.40
2019,11,24,12,57,9.40
2019,11,24,12,58,9.30
2019,11,24,12,59,9.40
2019,11,24,13,00,9.30
2019,11,24,13,01,9.30
2019,11,24,13,02,9.30
2019,11,24,13,03,9.30
2019,11,24,13,04,9.30
2019,11,24,13,05,9.30
2019,11,24,13,06,9.30
2019,11,24,13,07,9.20
2019,11,24,13,08,9.20
2019,11,24,13,09,9.30
2019,11,24,13,10,9.30
2019,11,24,13,11,9.30
2019,11,24,13,12,9.30
2019,11,24,13,13,9.30
2019,11,24,13,14,9.30
2019,11,24,13,15,9.40
2019,11,24,13,16,9.40
2019,11,24,13,17,9.40
2019,11,24,13,18,9.50
2019,11,24,13,19,9.50
2019,11,24,13,20,9.60
2019,11,24,13,21,9.60
2019,11,24,13,22,9.60
2019,11,24,13,23,9.70
2019,11,24,13,24,9.70
2019,11,24,13,25,9.70
2019,11,24,13,26,9.70
2019,11,24,13,27,9.80
2019,11,24,13,28,9.80
2019,11,24,13,29,9.80
2019,11,24,13,30,9.80
2019,11,24,13,31,9.80
2019,11,24,13,32,9.80
2019,11,24,13,33,9.80
2019,11,24,13,34,9.80
2019,11,24,13,35,9.80
2019,11,24,13,36,9.80
2019,11,24,13,37,9.80
2019,11,24,13,38,9.80
2019,11,24,13,39,9.80
2019,11,24,13,40,9.80
2019,11,24,13,41,9.80
2019,11,24,13,42,9.80
2019,11,24,13,43,9.80
2019,11,24,13,44,9.80
2019,11,24,13,45,9.80
2019,11,24,13,46,9.80
2019,11,24,13,47,9.80
2019,11,24,13,48,9.80
2019,11,24,13,49,9.80
2019,11,24,13,50,9.80
2019,11,24,13,51,9.70
2019,11,24,13,52,9.70
2019,11,24,13,53,9.70
2019,11,24,13,54,9.70
2019,11,24,13,55,9.70
2019,11,24,13,56,9.70
2019,11,24,13,57,9.70
2019,11,24,13,58,9.70
2019,11,24,13,59,9.70
2019,11,24,14,00,9.70
2019,11,24,14,01,9.70
2019,11,24,14,02,9.70
2019,11,24,14,03,9.70
2019,11,24,14,04,9.70
2019,11,24,14,05,9.70
2019,11,24,14,06,9.70
2019,11,24,14,07,9.80
2019,11,24,14,08,9.80
2019,11,24,14,09,9.70
2019,11,24,14,10,9.70
2019,11,24,14,11,9.70
2019,11,24,14,12,9.70
2019,11,24,14,13,9.70
2019,11,24,14,14,9.60
2019,11,24,14,15,9.60
2019,11,24,14,16,9.60
2019,11,24,14,17,9.60
2019,11,24,14,18,9.60
2019,11,24,14,19,9.60
2019,11,24,14,20,9.60
2019,11,24,14,21,9.50
2019,11,24,14,22,9.50
2019,11,24,14,23,9.50
2019,11,24,14,24,9.50
2019,11,24,14,25,9.40
2019,11,24,14,26,9.40
2019,11,24,14,27,9.40
2019,11,24,14,28,9.40
2019,11,24,14,29,9.30
2019,11,24,14,30,9.30
2019,11,24,14,31,9.30
2019,11,24,14,32,9.30
2019,11,24,14,33,9.30
2019,11,24,14,34,9.30
2019,11,24,14,35,9.30
2019,11,24,14,36,9.30
2019,11,24,14,37,9.30
2019,11,24,14,38,9.30
2019,11,24,14,39,9.30
2019,11,24,14,40,9.30
2019,11,24,14,41,9.30
2019,11,24,14,42,9.30
2019,11,24,14,43,9.30
2019,11,24,14,44,9.30
2019,11,24,14,45,9.30
2019,11,24,14,46,9.30
2019,11,24,14,47,9.30
2019,11,24,14,48,9.30
2019,11,24,14,49,9.20
2019,11,24,14,50,9.20
2019,11,24,14,51,9.20
2019,11,24,14,52,9.20
2019,11,24,14,53,9.20
2019,11,24,14,54,9.20
2019,11,24,14,55,9.20
2019,11,24,14,56,9.20
2019,11,24,14,57,9.10
2019,11,24,14,58,9.10
2019,11,24,14,59,9.10
2019,11,24,15,00,9.10
2019,11,24,15,01,9.10
2019,11,24,15,02,9.10
2019,11,24,15,03,9.10
2019,11,24,15,04,9.00
2019,11,24,15,05,9.00
2019,11,24,15,06,9.00
2019,11,24,15,07,9.00
2019,11,24,15,08,9.00
2019,11,24,15,09,9.00
2019,11,24,15,10,9.00
2019,11,24,15,11,9.00
2019,11,24,15,12,9.00
2019,11,24,15,13,8.90
2019,11,24,15,14,8.90
2019,11,24,15,15,8.90
2019,11,24,15,16,8.90
2019,11,24,15,17,8.90
2019,11,24,15,18,8.90
2019,11,24,15,19,8.90
2019,11,24,15,20,8.90
2019,11,24,15,21,8.90
2019,11,24,15,22,8.90
2019,11,24,15,23,8.90
2019,11,24,15,24,8.90
2019,11,24,15,25,8.80
2019,11,24,15,26,8.80
2019,11,24,15,27,8.80
2019,11,24,15,28,8.80
2019,11,24,15,29,8.80
2019,11,24,15,30,8.80
2019,11,24,15,31,8.80
2019,11,24,15,32,8.80
2019,11,24,15,33,8.70
2019,11,24,15,34,8.70
2019,11,24,15,35,8.70
2019,11,24,15,36,8.60
2019,11,24,15,37,8.60
2019,11,24,15,38,8.60
2019,11,24,15,39,8.50
2019,11,24,15,40,8.50
2019,11,24,15,41,8.40
2019,11,24,15,42,8.40
2019,11,24,15,43,8.40
2019,11,24,15,44,8.30
2019,11,24,15,45,8.30
2019,11,24,15,46,8.30
2019,11,24,15,47,8.30
2019,11,24,15,48,8.30
2019,11,24,15,49,8.20
2019,11,24,15,50,8.20
2019,11,24,15,51,8.10
2019,11,24,15,52,8.10
2019,11,24,15,53,8.10
2019,11,24,15,54,8.00
2019,11,24,15,55,7.90
2019,11,24,15,56,7.90
2019,11,24,15,57,7.80
2019,11,24,15,58,7.80
2019,11,24,15,59,7.80
2019,11,24,16,00,7.70
2019,11,24,16,01,7.70
2019,11,24,16,02,7.70
2019,11,24,16,03,7.60
2019,11,24,16,04,7.60
2019,11,24,16,05,7.50
2019,11,24,16,06,7.50
2019,11,24,16,07,7.40
2019,11,24,16,08,7.40
2019,11,24,16,09,7.40
2019,11,24,16,10,7.30
2019,11,24,16,11,7.30
2019,11,24,16,12,7.30
2019,11,24,16,13,7.20
2019,11,24,16,14,7.20
2019,11,24,16,15,7.20
2019,11,24,16,16,7.20
2019,11,24,16,17,7.10
2019,11,24,16,18,7.10
2019,11,24,16,19,7.10
2019,11,24,16,20,7.00
2019,11,24,16,21,7.00
2019,11,24,16,22,6.90
2019,11,24,16,23,6.90
2019,11,24,16,24,6.80
2019,11,24,16,25,6.80
2019,11,24,16,26,6.80
2019,11,24,16,27,6.80
2019,11,24,16,28,6.70
2019,11,24,16,29,6.70
2019,11,24,16,30,6.60
2019,11,24,16,31,6.60
2019,11,24,16,32,6.50
2019,11,24,16,33,6.50
2019,11,24,16,34,6.40
2019,11,24,16,35,6.40
2019,11,24,16,36,6.30
2019,11,24,16,37,6.30
2019,11,24,16,38,6.30
2019,11,24,16,39,6.20
2019,11,24,16,40,6.20
2019,11,24,16,41,6.10
2019,11,24,16,42,6.10
2019,11,24,16,43,6.00
2019,11,24,16,44,6.00
2019,11,24,16,45,5.90
2019,11,24,16,46,5.90
2019,11,24,16,47,5.80
2019,11,24,16,48,5.80
2019,11,24,16,49,5.80
2019,11,24,16,50,5.70
2019,11,24,16,51,5.70
2019,11,24,16,52,5.70
2019,11,24,16,53,5.60
2019,11,24,16,54,5.60
2019,11,24,16,55,5.60
2019,11,24,16,56,5.50
2019,11,24,16,57,5.50
2019,11,24,16,58,5.50
2019,11,24,16,59,5.40
2019,11,24,17,00,5.40
2019,11,24,17,01,5.40
2019,11,24,17,02,5.30
2019,11,24,17,03,5.30
2019,11,24,17,04,5.30
2019,11,24,17,05,5.20
2019,11,24,17,06,5.20
2019,11,24,17,07,5.20
2019,11,24,17,08,5.20
2019,11,24,17,09,5.10
2019,11,24,17,10,5.10
2019,11,24,17,11,5.00
2019,11,24,17,12,5.00
2019,11,24,17,13,4.90
2019,11,24,17,14,4.90
2019,11,24,17,15,4.90
2019,11,24,17,16,4.80
2019,11,24,17,17,4.80
2019,11,24,17,18,4.80
2019,11,24,17,19,4.80
2019,11,24,17,20,4.80
2019,11,24,17,21,4.80
2019,11,24,17,22,4.70
2019,11,24,17,23,4.70
2019,11,24,17,24,4.70
2019,11,24,17,25,4.70
2019,11,24,17,26,4.60
2019,11,24,17,27,4.60
2019,11,24,17,28,4.60
2019,11,24,17,29,4.60
2019,11,24,17,30,4.50
2019,11,24,17,31,4.50
2019,11,24,17,32,4.50
2019,11,24,17,33,4.50
2019,11,24,17,34,4.40
2019,11,24,17,35,4.40
2019,11,24,17,36,4.40
2019,11,24,17,37,4.40
2019,11,24,17,38,4.40
2019,11,24,17,39,4.40
2019,11,24,17,40,4.40
2019,11,24,17,41,4.30
2019,11,24,17,42,4.30
2019,11,24,17,43,4.30
2019,11,24,17,44,4.30
2019,11,24,17,45,4.30
2019,11,24,17,46,4.30
2019,11,24,17,47,4.30
2019,11,24,17,48,4.30
2019,11,24,17,49,4.30
2019,11,24,17,50,4.30
2019,11,24,17,51,4.30
2019,11,24,17,52,4.30
2019,11,24,17,53,4.30
2019,11,24,17,54,4.30
2019,11,24,17,55,4.30
2019,11,24,17,56,4.30
2019,11,24,17,57,4.30
2019,11,24,17,58,4.30
2019,11,24,17,59,4.30
2019,11,24,18,00,4.30
2019,11,24,18,01,4.20
2019,11,24,18,02,4.30
2019,11,24,18,03,4.30
2019,11,24,18,04,4.30
2019,11,24,18,05,4.30
2019,11,24,18,06,4.30